Location: Cazarilh
(42.9578°N, 0.5819°E)
Time: 01:01:21
(UTC+00:00)

Cosmos 2266 Rocket - Pass Details

Date: 11 December 2019
Orbit: 933 x 1009 km, 82.9° (Epoch: 27 January)

Event Time Altitude Azimuth Distance (km) Brightness Sun altitude
Rises 06:15:01 0° 352° (N) 3,690 6.7 -11.2°
Reaches altitude 10° 06:17:34 10° 352° (N) 2,728 6.1 -10.8°
Maximum altitude 06:23:49 89° 77° (ENE) 965 4.0 -9.7°
Drops below altitude 10° 06:29:55 10° 174° (S) 2,660 6.7 -8.7°
Sets 06:32:22 0° 174° (S) 3,592 7.4 -8.3°
